Regional Weather Roundup
Issued by NWS

Home | Current Version | Previous Version | Graphics & Text | Print | Product List | Glossary On
Versions: 1 2 3 4 5 6 7 8 9 10 11 12 13 14 15 16 17 18 19 20 21 22 23 24 25 26 27 28 29 30 31 32 33 34 35 36 37 38 39 40 41 42 43 44 45 46 47 48 49 50
000
ASUS43 KOAX 020502
RWRNE

WEATHER ROUNDUP FOR NEBRASKA
NATIONAL WEATHER SERVICE OMAHA NE
1200 AM CDT THU APR 02 2015

NOTES: SATELLITE DATA IS BEING USED TO AUGMENT CLOUD COVER ABOVE
       12000 FEET.
       "FAIR" INDICATES FEW OR NO CLOUDS BELOW 12,000 FEET WITH NO
       SIGNIFICANT WEATHER AND/OR OBSTRUCTIONS TO VISIBILITY.

  * THESE STATIONS DO NOT REPORT WEATHER SUCH AS RAIN...SNOW OR FOG.

NEZ001>004-019>022-054>056-020600-
NEBRASKA PANHANDLE

CITY           SKY/WX    TMP DP  RH WIND       PRES   REMARKS
SCOTTSBLUFF    MOCLDY    37  24  59 W6        29.90R WCI  32
ALLIANCE       CLOUDY    37  27  67 NW8       29.87S WCI  31
CHADRON        MOCLDY    33  23  66 W5        29.88S WCI  29
SIDNEY         CLOUDY    41  25  53 N14       29.88R
$$

NEZ057>060-069>072-079>082-020600-
SOUTHWEST NEBRASKA

CITY           SKY/WX    TMP DP  RH WIND       PRES   REMARKS
NORTH PLATTE   CLOUDY    53  25  33 N13       29.82R
IMPERIAL       CLOUDY    52  45  77 CALM      29.79F
MCCOOK         MOCLDY    60  33  36 N9        29.79R
$$

NEZ005>010-023>029-035>040-094-020600-
NORTH CENTRAL NEBRASKA

CITY           SKY/WX    TMP DP  RH WIND       PRES   REMARKS
VALENTINE      CLOUDY    50  20  30 NW8       29.80S
BROKEN BOW     CLOUDY    56  25  30 N17G25    29.84R
ORD            CLOUDY    56  23  27 N13       29.84R
$$

NEZ041-046>049-061>064-073>077-083>087-020600-
SOUTH CENTRAL NEBRASKA

CITY           SKY/WX    TMP DP  RH WIND       PRES   REMARKS
GRAND ISLAND   CLOUDY    56  41  57 N17       29.78R
HASTINGS       LGT RAIN  56  45  66 NW16      29.82R
KEARNEY *      CLOUDY    55  37  50 N22       29.79F
$$

NEZ011>018-030>034-042>045-020600-
NORTHEAST NEBRASKA

CITY           SKY/WX    TMP DP  RH WIND       PRES   REMARKS
NORFOLK        CLOUDY    58  41  53 W8        29.80R
COLUMBUS *     CLOUDY    55  48  76 NE9       29.81R
TEKAMAH        RAIN      56  53  90 NW5       29.71R
$$

NEZ050>053-065>068-078-088>093-020600-
SOUTHEAST NEBRASKA

CITY           SKY/WX    TMP DP  RH WIND       PRES   REMARKS
LINCOLN        LGT RAIN  55  53  93 N15       29.70F
OMAHA EPPLEY   TSTM      57  55  93 CALM      29.71R
FALLS CITY     CLOUDY    61  56  83 SE16      29.58F
$$

NEZ044-045-051>053-067-020600-
OMAHA AREA

CITY           SKY/WX    TMP DP  RH WIND       PRES   REMARKS
OMAHA EPPLEY   TSTM      57  55  93 CALM      29.71R
OFFUTT AFB     TSTM      57  55  94 N8        29.68F FOG
$$


USA.gov is the U.S. government's official web portal to all federal, state and local government web resources and services.